Location: ??
(35.5090°N, 139.6783°E)
Time: 20:37:17
(UTC+00:00)

Cosmos 1869 - Pass Details

Date: 08 November 2025
Orbit: 453 x 481 km, 82.5° (Epoch: 08 December)

Event Time Altitude Azimuth Distance (km) Brightness Sun altitude
Rises 08:58:44 0° 168° (SSE) 2,521 6.7 -16.3°
Reaches altitude 10° 09:00:56 10° 159° (SSE) 1,641 5.6 -16.8°
Enters shadow 09:03:01 27° 133° (SE) 945 4.2 -17.2°
